This is the latest recevied weather packets stored in our database for station/object KC8ZBC. If no packets are shown the sender has not sent any weather packets the latest 10 day(s).
| Time | Temp. | Humidity | Pressure | Rain* | Wind** | Luminosity | Snow |
|---|---|---|---|---|---|---|---|
| 1777668332 | 7.22° C | 59% | 989.2 hPa | 0 mm | - | 26 W/m² | - |
| 1777668028 | 7.22° C | 58% | 989.2 hPa | 0 mm | - | 26 W/m² | - |
| 1777667725 | 7.22° C | 58% | 989.3 hPa | 0 mm | - | 44 W/m² | - |
| 1777667423 | 7.78° C | 57% | 989 hPa | 0 mm | - | 86 W/m² | - |
| 1777667119 | 7.78° C | 57% | 989 hPa | 0 mm | - | 137 W/m² | - |
| 1777666816 | 7.78° C | 56% | 989.2 hPa | 0 mm | - | 207 W/m² | - |
| 1777666513 | 7.78° C | 58% | 989.1 hPa | 0 mm | - | 149 W/m² | - |
| 1777666209 | 7.78° C | 55% | 989.1 hPa | 0 mm | - | 104 W/m² | - |
| 1777665907 | 8.33° C | 56% | 989.2 hPa | 0 mm | - | 147 W/m² | - |
| 1777665604 | 7.78° C | 58% | 989.1 hPa | 0 mm | - | 181 W/m² | - |
| 1777665301 | 7.22° C | 57% | 989.1 hPa | 0 mm | - | 100 W/m² | - |
| 1777664996 | 7.78° C | 57% | 989.1 hPa | 0 mm | - | 93 W/m² | - |
| 1777664692 | 7.78° C | 57% | 988.9 hPa | 0 mm | - | 159 W/m² | - |
| 1777664388 | 7.22° C | 55% | 989 hPa | 0 mm | - | 160 W/m² | - |
| 1777664086 | 7.78° C | 57% | 988.9 hPa | 0 mm | - | 150 W/m² | - |
| 1777663784 | 7.22° C | 58% | 989 hPa | 0 mm | - | 141 W/m² | - |
| 1777663481 | 7.22° C | 57% | 989.1 hPa | 0 mm | - | 138 W/m² | - |
| 1777663178 | 7.22° C | 59% | 989.1 hPa | 0 mm | - | 121 W/m² | - |
| 1777662875 | 7.22° C | 59% | 989 hPa | 0 mm | - | 115 W/m² | - |
| 1777662572 | 7.22° C | 58% | 989.1 hPa | 0 mm | - | 116 W/m² | - |
| 1777662268 | 7.22° C | 59% | 988.8 hPa | 0 mm | - | 132 W/m² | - |
| 1777661963 | 7.22° C | 59% | 989 hPa | 0 mm | - | 124 W/m² | - |
| 1777661660 | 7.22° C | 59% | 989 hPa | 0 mm | - | 83 W/m² | - |
| 1777661356 | 7.22° C | 61% | 989 hPa | 0 mm | - | 89 W/m² | - |
| 1777661052 | 7.22° C | 60% | 988.8 hPa | 0 mm | - | 116 W/m² | - |
* Rain latest hour (hover to see other rain measurements)
** Current wind speed in m/s (hover to see current wind gust speed)